Location: Martinez
(33.5170°N, 82.0760°W)
Time: 14:41:34
(UTC-04:00)

Hubble Space Telescope - Visible Passes

Search period start: 29 September 2016 00:00
Search period end: 09 October 2016 00:00
Orbit: 539 x 542 km, 28.5° (Epoch: 28 September)

Date Brightness Start Highest point End Pass type
(mag) Time Alt. Az. Time Alt. Az. Time Alt. Az.
04 Oct 3.1 19:47:23 10° SSE 19:47:55 10° SSE 19:48:28 10° SSE visible
04 Oct 3.5 21:25:04 10° SW 21:25:29 12° SW 21:25:29 12° SW visible
05 Oct 3.0 19:36:01 10° S 19:38:00 13° SSE 19:39:58 10° SE visible
05 Oct 3.0 21:15:02 10° SW 21:16:24 18° SW 21:16:24 18° SW visible
06 Oct 2.5 21:05:04 10° SW 21:07:14 25° SW 21:07:14 25° SW visible
07 Oct 2.0 20:55:08 10° WSW 20:58:02 32° SSW 20:58:02 32° SSW visible
08 Oct 1.6 20:45:14 10° WSW 20:48:47 39° S 20:48:47 39° S visible
